Location: Maignaut
(43.8886°N, 0.4051°E)
Time: 09:33:44
(UTC+00:00)

STARLINK-80 - Pass Details

Date: 27 February 2020
Orbit: 488 x 495 km, 53.0° (Epoch: 09 April)

Event Time Altitude Azimuth Distance (km) Brightness Sun altitude
Rises 19:16:31 0° 306° (NW) 2,585 8.1 -17.5°
Reaches altitude 10° 19:18:46 10° 312° (NW) 1,700 6.9 -17.9°
Maximum altitude 19:22:29 47° 27° (NNE) 667 3.8 -18.6°
Enters shadow 19:23:00 44° 53° (NE) 701 3.8 -18.7°
